Tracking 20037 objects as of 21-Nov-2019
Live streaming from Space Station
objects crossing your sky now

SL-14 DEB


SL-14 DEB is no longer on orbit


NORAD ID: 20010
Int'l Code: 1978-100AP
Perigee: N/A
Apogee: N/A
Inclination: N/A
Period: N/A
Semi major axis: N/A
RCS: N/A
Launch date: October 26, 1978
Source: Commonwealth of Independent States (former USSR) (CIS)
Launch site: PLESETSK MISSILE AND SPACE COMPLEX (PKMTR)
Decay date: 2012-11-05

Note: This is SATELLITE DEBRIS
aabbcc
Your satellite tracking list
Your tracking list is empty




NASA's NSSDC Master Catalog

Two Line Element Set (TLE):
1 20010U 78100AP  12309.88706617  .25486410  00000-0  22333+0 0  9999
2 20010 082.1654 250.2919 0037877 135.7684 243.5996 15.61660568115677
Source of the keplerian elements: AFSPC